KFKS

Details ICAO KFKS
Name FRANKFORT DOW MEM FLD
Region United States
Timezone America/Detroit (UTC-4.0)
Plans Departing 2
Arriving 6
Stats Elevation 633 ft / 193 m (AMSL)
Location 44.625203° -86.200856°
Runways 1
Magnetic Variation 5.597° W
Sunrise 2018-05-26 10:08:02 UTC / 2018-05-26 06:08:02 Local
Sunset 2018-05-27 01:18:35 UTC / 2018-05-26 21:18:35 Local
Advertisement - Login to hide

Runways

ID Width Length Bearing (true) Bearing (mag) Surface Threshold Offset Overrun Length
15 75 ft / 23 m 4,048 ft / 1,234 m 139.44° 145.04° Asphalt 1,094 ft / 333 m 200 ft / 61 m
33 75 ft / 23 m 4,048 ft / 1,234 m 319.45° 325.05° Asphalt 111 ft / 34 m 100 ft / 30 m

Map

Weather


0- 5 10 15 20 25 30 35+ Temperature / ° C

Clouds and Precipitation
Forecast for 2018-05-26 06:00 UTC. Updated 3 hours ago

Ground ~20,000 ft ~40,000 ft Winds

METAR

KFKS 260755Z AUTO 00000KT 10SM BKN110 18/16 A2974 RMK AO2 T01770161

TAF

Not found

Frequencies

Recorded 118.32 MHz AWOS 3
Unicom 123.05 MHz CTAF/UNICOM
Warning: Do not use this data for real-world aviation or navigation. No guarantee of current accuracy is given.